Location: Unspecified
(0.0000°N, 0.0000°E)
Time: 18:57:46
(UTC+00:00)

SRMSAT - Pass Details

Date: 29 May 2020
Orbit: 848 x 866 km, 20.0° (Epoch: 06 July)

Event Time Altitude Azimuth Distance (km) Brightness Sun altitude
Exits shadow 05:16:19 11° 240° (WSW) 2,394 ? -9.6°
Maximum altitude 05:20:19 21° 196° (SSW) 1,843 ? -8.6°
Drops below altitude 10° 05:24:44 10° 148° (SSE) 2,495 ? -7.6°
Sets 05:27:57 0° 132° (SE) 3,430 ? -6.9°
